Wetbulb
51.77 52.00 51.83 51.43 51.52 51.65 51.40 51.55 50.76 50.59 50.34 50.56 50.86 50.77 50.08 49.57 51.04 51.61 51.06 55.00 51.04 47.82 49.25 51.11 51.65 49.93 50.04 49.56 46.63 49.49 49.04 47.89 48.80 45.73 44.30 44.74 42.89 45.18 43.71 45.64 46.23 45.67 45.25 45.35 45.79 43.19 39.96 53.82 54.10 49.20 53.79 56.79 56.08 56.76
51.25 51.37 51.52 51.43 51.43 51.63 51.38 51.00 51.09 50.98 50.23 50.60 50.73 50.82 50.82 50.29 50.90 51.10 49.73 54.39 55.15 48.91 48.26 52.51 53.31 54.57 53.68 53.43 51.13 50.38 49.41 47.95 50.27 47.68 47.53 47.15 45.31 46.52 46.17 42.27 49.83 45.03 48.83 47.27 47.94 47.69 53.75 55.48 56.00 58.01 57.99 56.49 57.13 57.48
51.30 51.23 51.37 51.40 51.16 51.13 51.24 51.32 51.04 50.43 50.44 50.72 50.77 51.17 51.10 50.64 50.95 50.37 51.15 54.48 53.59 49.23 48.12 48.76 48.03 53.22 55.44 55.23 56.37 48.48 50.22 51.66 51.14 51.34 49.23 48.47 45.20 48.40 44.46 46.15 47.25 49.70 51.16 48.79 47.39 50.77 51.80 54.01 56.58 57.06 57.56 57.71 58.79 59.84
50.83 51.37 51.29 51.13 51.13 51.08 50.97 50.72 50.77 50.62 50.51 51.02 50.60 50.80 50.78 50.67 50.63 50.47 50.59 53.77 52.74 50.62 44.01 45.96 53.46 51.39 54.83 55.06 54.66 54.74 53.58 51.49 51.24 51.26 48.64 47.33 45.63 49.45 46.43 46.32 46.25 49.07 50.70 48.47 48.52 50.85 53.08 54.87 55.99 57.08 58.86 60.08 59.57 59.59
50.51 50.75 50.93 50.98 50.81 50.80 50.74 50.51 50.81 50.50 50.49 50.46 51.18 50.66 50.58 50.57 50.05 51.37 51.59 52.48 55.47 49.40 43.46 44.99 50.65 52.36 53.67 53.79 52.69 53.61 52.70 51.75 50.08 47.97 47.25 46.22 49.65 47.61 48.43 46.75 45.83 49.98 48.58 46.48 45.61 52.03 52.04 53.03 56.65 58.42 58.25 57.48 58.63 59.01
50.50 50.75 50.87 50.99 50.84 50.59 50.21 50.48 50.44 50.18 50.26 50.79 51.13 50.57 50.19 50.19 50.78 50.00 46.68 53.10 54.70 53.60 46.72 42.17 50.98 49.94 51.40 51.19 51.37 50.72 51.76 51.12 49.94 48.30 47.89 49.51 51.14 48.85 44.95 43.36 49.42 51.08 52.25 52.01 50.19 55.07 55.23 56.05 56.97 58.41 57.92 58.62 59.20 59.46
50.24 50.65 50.45 50.58 50.49 50.32 50.53 50.24 49.92 49.89 50.32 50.19 50.16 49.82 49.98 49.74 50.69 46.05 47.28 51.34 52.99 54.33 46.52 43.57 44.51 49.83 50.03 49.84 49.05 48.89 50.84 49.66 49.25 47.50 46.97 48.57 49.44 48.26 46.66 43.20 49.27 51.32 52.02 53.01 56.26 56.12 55.06 56.81 55.72 57.43 57.41 58.33 58.63 59.59
49.93 50.14 50.24 50.35 50.26 50.31 49.97 49.74 49.78 49.87 50.00 49.90 49.97 49.72 49.75 50.10 50.19 48.32 53.49 52.39 53.97 51.25 50.54 41.66 43.36 45.69 50.43 47.56 46.16 50.35 47.84 49.04 48.62 49.18 48.64 47.92 48.06 48.24 44.24 49.12 50.77 51.07 52.36 53.58 55.24 57.23 56.39 57.27 57.70 57.99 58.75 58.23 57.55 57.95
49.66 49.86 49.99 50.02 50.00 50.04 49.80 49.48 50.15 49.95 49.71 49.50 49.84 49.82 50.61 48.43 46.81 48.64 54.58 54.85 54.44 49.90 44.29 44.41 41.36 41.82 50.72 48.07 48.58 47.92 51.11 45.39 48.13 46.48 47.10 48.41 46.39 43.73 48.12 49.29 50.96 52.16 53.28 54.49 55.82 55.75 56.06 55.73 56.35 56.57 56.47 56.18 55.74 56.30
49.45 49.66 49.82 49.76 49.72 49.78 49.65 49.34 49.63 49.17 49.50 49.63 49.16 45.81 43.15 49.64 54.61 55.00 52.15 47.32 47.71 47.55 48.23 42.80 46.64 43.39 48.45 49.28 47.22 47.43 47.58 46.41 43.17 46.47 47.43 45.56 45.05 48.84 50.19 53.17 53.88 54.23 54.68 55.32 53.05 52.97 53.73 53.91 54.48 52.96 54.03 55.46 55.98 56.46
49.68 49.61 49.65 49.89 49.54 49.54 49.50 49.63 49.74 49.04 49.28 47.79 43.71 45.22 51.76 54.01 52.41 48.65 43.28 43.10 43.66 41.34 45.54 45.19 45.79 43.96 49.11 45.35 47.73 48.50 47.11 47.26 42.85 45.68 44.84 44.37 45.39 49.67 52.89 54.11 55.79 55.76 56.64 57.13 56.92 56.54 56.79 56.07 55.25 55.40 56.20 56.54 57.09 57.44
49.42 49.46 49.50 49.57 49.59 49.43 49.31 49.49 49.45 49.03 48.16 47.71 48.69 51.68 51.90 47.81 44.83 41.41 39.84 41.92 41.34 40.40 44.79 43.66 45.00 45.78 48.23 50.74 48.75 50.00 46.75 47.03 41.10 48.80 46.00 43.71 48.33 51.19 53.15 53.79 55.26 56.68 55.78 55.76 57.10 55.82 55.54 55.47 55.80 56.37 57.32 56.94 57.64 57.63
49.14 49.13 49.24 49.47 49.54 49.68 49.62 49.69 49.83 48.98 49.62 49.90 48.22 45.23 45.19 43.89 35.83 35.39 35.14 38.45 40.03 45.20 46.28 45.06 44.61 46.49 47.30 50.33 48.48 47.61 43.21 43.34 48.59 44.29 42.48 46.37 50.06 52.79 53.83 54.31 54.57 55.05 54.86 54.47 54.12 55.16 55.14 54.92 55.94 56.47 56.53 58.15 58.24 57.83
48.87 49.04 49.13 49.37 49.58 49.59 49.62 49.91 50.09 49.19 45.71 42.82 38.50 34.92 38.95 37.15 38.64 40.56 41.24 43.50 47.11 48.17 45.98 45.93 45.63 45.28 49.65 47.54 46.44 41.02 45.76 46.72 41.74 40.81 41.68 48.31 50.67 51.91 53.55 54.00 53.87 53.35 53.92 53.85 53.85 54.49 54.51 55.36 56.19 56.98 57.40 57.93 58.29 58.04
49.00 49.09 49.21 49.35 49.68 49.94 49.81 49.81 50.08 48.35 46.76 40.84 42.72 36.82 39.37 44.14 45.10 45.61 46.46 45.75 47.36 48.31 49.30 47.58 47.04 47.62 46.98 44.49 45.31 44.30 42.61 40.78 42.59 42.10 46.49 50.15 51.60 53.08 53.67 53.73 53.39 53.13 53.51 53.67 54.52 54.74 54.98 55.07 55.30 55.72 56.44 56.60 57.25 57.70
49.42 49.16 48.35 49.96 50.30 50.05 49.59 50.63 50.13 49.09 47.01 43.52 43.09 41.62 45.27 44.07 44.99 45.08 44.91 45.49 49.08 49.51 50.34 49.70 47.10 44.96 43.04 43.34 41.72 41.29 41.55 39.96 41.95 46.58 50.40 51.32 52.03 52.96 53.08 53.87 53.81 54.20 54.37 53.98 54.31 54.19 53.48 53.24 53.49 52.81 54.18 55.06 56.19 56.32
48.83 46.80 49.89 49.91 49.80 50.19 50.17 48.39 47.58 45.01 42.58 39.73 40.98 46.55 46.11 45.77 45.66 47.28 47.42 48.33 51.12 49.43 48.33 48.86 42.10 41.44 47.10 43.10 41.69 44.30 43.91 46.26 48.68 50.61 51.82 50.88 52.16 52.51 53.19 53.33 53.59 54.36 54.16 54.66 55.14 52.98 52.54 53.41 53.43 53.51 53.97 55.06 56.19 55.87
47.04 49.72 50.30 50.07 50.06 49.90 49.16 48.74 45.32 41.59 36.32 40.33 42.34 45.48 47.14 48.31 47.51 47.83 49.65 50.98 50.66 50.23 49.62 46.54 48.55 44.03 42.55 40.29 41.62 45.06 47.25 47.74 48.85 49.12 50.24 51.96 53.04 53.18 52.96 52.79 53.41 53.88 54.30 52.90 52.30 52.88 53.10 53.02 52.88 53.36 53.54 54.58 55.36 54.72
48.32 49.97 50.41 50.40 50.32 47.91 45.05 45.07 45.50 37.49 41.81 45.93 46.68 46.63 45.96 48.37 49.23 49.74 50.60 50.97 51.70 53.32 51.90 49.67 44.99 43.15 43.51 46.78 46.51 47.37 48.44 48.50 49.05 49.76 50.72 51.71 52.41 52.09 52.34 52.71 52.40 51.75 51.24 50.59 50.20 50.06 52.92 55.06 54.30 54.33 54.69 54.35 52.08 51.50
50.48 50.44 50.53 50.73 51.31 46.38 43.23 43.34 47.10 43.58 43.00 45.32 47.21 46.15 46.80 46.67 48.49 51.41 51.03 50.97 50.25 48.73 46.54 44.52 43.72 44.84 45.28 48.12 50.60 49.51 48.96 48.42 50.22 50.19 49.98 50.56 51.53 51.72 51.09 50.63 49.90 50.83 49.21 49.75 49.66 45.76 50.06 50.87 52.28 53.77 54.56 53.10 52.38 49.83
49.66 50.42 51.20 51.15 48.78 48.12 47.01 45.25 44.72 44.87 44.47 43.28 46.51 47.42 46.20 49.59 48.37 48.55 48.64 51.69 48.46 47.44 46.00 47.70 49.31 50.34 50.34 50.75 50.65 51.97 51.26 51.62 51.28 52.58 50.43 49.42 51.33 51.60 50.54 50.34 50.21 49.09 47.93 47.99 48.03 48.37 47.99 49.66 51.61 53.13 50.63 49.11 49.21 49.44
49.82 50.70 49.96 51.04 46.62 46.56 45.73 46.95 45.54 46.86 45.55 44.85 46.40 46.54 45.25 44.97 46.21 47.02 50.06 47.18 45.76 46.92 48.62 49.68 50.35 51.77 51.67 50.96 51.14 51.78 52.79 53.44 53.23 50.37 48.17 48.54 50.70 49.80 49.44 49.60 49.40 47.98 47.89 48.08 48.18 48.25 48.75 49.89 50.17 49.91 50.10 48.62 47.11 46.55
50.05 49.76 48.34 47.40 43.06 41.31 41.86 47.50 45.06 44.93 43.48 44.33 46.46 44.34 43.87 44.66 46.22 50.62 46.14 47.66 48.24 50.41 50.16 49.98 51.04 51.76 51.43 52.44 53.23 53.31 54.08 53.07 51.76 52.97 51.75 50.91 50.32 50.60 50.57 49.85 49.83 48.71 47.84 47.81 48.82 48.31 48.02 44.43 47.02 48.56 48.63 47.30 45.86 44.90
48.68 44.92 41.48 40.86 42.43 40.31 45.67 44.53 46.35 45.08 44.65 43.44 42.86 40.81 41.49 41.84 47.31 45.37 42.94 46.28 48.07 49.85 50.22 50.94 51.13 50.77 51.82 51.98 51.01 51.73 51.93 52.07 52.27 51.85 51.61 51.94 49.94 48.87 49.50 48.73 48.81 48.70 48.64 49.09 48.63 48.03 47.97 47.42 44.24 47.64 47.07 46.36 45.82 44.97
39.23 39.84 41.45 36.67 44.53 43.02 42.17 42.31 42.64 42.60 39.94 41.51 40.60 40.32 41.46 44.15 41.56 41.58 42.10 45.78 48.01 48.98 49.47 50.50 48.56 49.23 48.40 48.59 48.70 48.69 49.20 50.91 51.73 49.41 48.04 51.22 49.58 49.01 47.21 47.60 48.33 48.26 49.44 48.82 47.52 47.02 46.43 46.61 46.01 45.23 44.84 44.87 44.08 43.10
35.35 39.84 38.26 40.88 41.50 41.49 41.03 39.38 39.86 39.89 40.65 39.69 40.61 43.68 44.77 42.79 39.50 39.00 44.49 48.18 49.21 48.58 49.49 49.23 47.90 46.11 45.69 45.79 46.32 46.37 46.46 48.00 49.77 47.50 44.02 44.99 46.02 47.37 47.24 46.83 46.70 46.86 49.01 48.56 46.90 45.48 45.08 44.78 43.94 43.09 42.97 42.49 38.93 42.89
35.66 38.49 41.15 42.84 42.66 42.58 41.09 41.70 42.61 41.83 39.59 38.95 42.67 42.71 42.55 35.70 38.58 44.60 49.98 51.12 49.42 49.15 49.31 48.01 47.35 46.57 45.74 45.88 46.20 46.24 47.31 47.81 46.77 46.16 47.39 47.58 47.75 48.12 48.50 46.90 45.71 46.97 48.49 47.09 46.24 45.24 44.39 43.88 43.23 43.19 43.12 43.60 43.71 43.75
39.25 40.53 38.96 40.78 42.59 42.64 40.07 40.60 40.36 39.84 41.29 43.34 43.78 40.52 39.48 40.25 41.82 46.30 48.51 50.70 48.27 47.33 47.00 46.72 46.86 47.01 46.38 45.65 45.51 45.86 46.67 47.14 47.63 47.67 47.86 47.55 47.42 47.31 47.71 48.30 47.81 38.88 47.04 47.38 46.87 46.25 45.40 44.85 44.18 44.06 43.73 43.58 43.89 44.88
40.34 41.91 41.45 41.44 42.49 43.29 42.91 42.45 42.57 44.44 45.84 45.11 42.55 41.19 42.49 44.59 45.11 46.74 48.27 49.07 48.23 48.44 47.72 47.39 46.63 47.96 47.38 46.38 45.83 45.64 45.86 46.05 44.84 42.94 42.21 42.92 44.12 44.37 46.19 46.87 47.68 48.59 48.71 48.31 38.39 41.94 44.92 45.11 45.01 44.52 44.20 44.38 44.80 45.56
40.39 43.04 42.99 42.96 42.54 42.06 44.11 45.62 44.85 46.35 46.57 46.10 46.86 46.07 46.38 47.21 47.75 48.94 48.76 48.44 48.31 48.35 48.37 48.35 48.26 47.78 46.95 46.33 45.31 45.02 45.65 45.91 45.57 44.48 42.44 42.13 42.88 44.91 45.46 45.56 45.89 46.33 46.92 47.53 47.48 46.50 39.37 44.50 42.96 45.84 44.09 44.09 43.73 43.35
44.04 45.64 45.03 44.65 43.50 45.44 46.35 47.38 48.04 47.89 47.74 46.71 48.18 46.19 45.34 47.07 49.25 49.94 49.91 49.56 49.42 49.61 49.33 48.55 48.67 48.65 47.82 47.34 46.82 45.57 44.40 46.04 45.81 45.71 45.56 46.00 46.19 46.05 45.42 45.46 45.93 46.29 46.56 47.22 47.44 46.45 45.62 44.59 43.90 43.06 42.79 42.75 42.74 41.87
47.25 45.92 44.55 42.52 43.63 46.95 47.97 46.65 45.51 44.51 44.93 45.22 46.24 47.91 47.09 46.90 44.79 48.78 51.14 50.70 49.99 49.10 45.29 47.74 47.76 47.64 48.67 49.36 48.99 47.76 39.56 47.33 47.20 46.88 46.16 46.76 46.87 47.02 47.07 46.62 46.39 46.33 45.98 45.73 46.12 45.64 44.96 43.81 43.52 43.28 42.86 42.76 42.72 42.62
46.66 46.15 46.71 45.36 44.71 45.10 46.92 47.13 45.89 45.33 46.61 46.03 46.48 47.28 47.15 46.38 43.29 49.12 50.38 50.31 51.31 50.49 50.04 50.13 50.16 50.27 48.89 48.27 48.09 47.47 43.14 47.93 44.13 37.91 37.75 36.97 35.95 39.21 45.17 47.63 47.13 46.33 45.66 45.27 45.04 44.86 44.27 44.10 44.10 44.12 44.01 43.95 43.67 42.95
MSLP
1017.85 1017.91 1018.00 1018.18 1018.45 1018.67 1018.86 1019.02 1019.18 1019.17 1019.19 1019.19 1019.19 1019.23 1019.27 1019.40 1019.39 1019.51 1018.73 1018.40 1018.67 1017.89 1016.68 1016.07 1015.56 1015.19 1014.94 1014.83 1014.29 1014.26 1013.82 1013.57 1012.85 1012.08 1011.50 1010.91 1010.68 1010.51 1010.42 1010.35 1010.38 1010.36 1010.55 1010.46 1010.26 1009.54 1008.68 1008.52 1008.76 1008.43 1007.51 1007.38 1007.46 1007.44
1017.03 1017.10 1017.26 1017.42 1017.70 1017.96 1018.17 1018.48 1018.61 1018.73 1018.80 1018.80 1018.82 1018.86 1018.97 1019.10 1019.11 1019.24 1018.84 1018.04 1018.28 1018.20 1017.23 1016.30 1015.57 1015.31 1015.17 1014.97 1014.79 1014.71 1014.20 1013.96 1013.28 1012.57 1012.22 1011.73 1011.12 1011.05 1010.66 1010.18 1010.70 1010.60 1010.32 1010.08 1010.04 1008.81 1008.33 1008.45 1008.01 1007.56 1007.77 1007.66 1007.45 1007.47
1016.27 1016.35 1016.49 1016.72 1016.99 1017.31 1017.60 1017.75 1018.08 1018.30 1018.34 1018.36 1018.43 1018.49 1018.54 1018.68 1018.80 1019.07 1018.68 1018.11 1018.03 1017.79 1016.79 1015.86 1014.43 1014.08 1014.61 1014.34 1014.55 1014.73 1014.30 1014.00 1013.72 1013.77 1012.89 1012.25 1011.59 1011.33 1010.64 1010.31 1010.32 1010.29 1010.39 1010.08 1009.81 1008.47 1008.25 1007.82 1007.62 1007.67 1007.59 1007.34 1007.21 1007.31
1015.58 1015.65 1015.80 1015.99 1016.22 1016.63 1016.94 1017.20 1017.46 1017.68 1017.85 1017.97 1018.00 1018.07 1018.13 1018.25 1018.45 1018.64 1018.57 1017.97 1017.74 1017.23 1016.30 1014.32 1013.94 1013.90 1013.41 1013.63 1013.97 1013.93 1013.72 1014.46 1014.30 1013.91 1013.12 1012.25 1011.60 1011.48 1010.77 1010.63 1010.28 1009.99 1010.34 1009.59 1009.08 1008.68 1008.03 1007.43 1007.46 1007.37 1007.25 1007.34 1007.24 1007.07
1015.00 1015.04 1015.13 1015.31 1015.55 1015.93 1016.39 1016.69 1016.85 1017.12 1017.36 1017.51 1017.65 1017.73 1017.79 1017.93 1018.15 1018.29 1018.21 1017.61 1017.43 1017.58 1016.16 1014.57 1013.78 1012.41 1012.32 1012.89 1013.13 1013.34 1013.66 1014.07 1014.17 1013.70 1012.86 1012.00 1011.73 1011.72 1010.99 1010.85 1009.62 1009.52 1009.34 1009.13 1008.32 1008.41 1008.58 1007.96 1007.59 1007.61 1007.39 1007.23 1007.17 1007.09
1014.35 1014.42 1014.56 1014.79 1015.08 1015.45 1015.85 1016.05 1016.43 1016.71 1016.93 1017.15 1017.30 1017.41 1017.45 1017.64 1017.91 1018.12 1017.45 1016.34 1016.49 1017.22 1016.64 1015.00 1012.84 1011.94 1011.82 1012.15 1012.34 1012.63 1012.90 1013.80 1013.81 1013.27 1012.58 1011.97 1011.58 1011.51 1010.44 1009.56 1008.95 1008.91 1009.03 1008.89 1008.68 1008.70 1008.81 1008.27 1007.95 1007.68 1007.51 1007.30 1007.20 1007.15
1013.75 1013.82 1013.97 1014.27 1014.65 1015.05 1015.36 1015.66 1016.00 1016.32 1016.58 1016.76 1016.91 1017.02 1017.07 1017.38 1017.64 1017.47 1016.82 1016.50 1016.38 1016.92 1016.58 1014.90 1012.64 1011.75 1011.84 1011.87 1012.31 1012.77 1013.07 1013.15 1013.19 1012.95 1012.21 1011.37 1011.08 1011.30 1010.23 1009.12 1008.82 1008.55 1008.63 1008.59 1008.84 1008.94 1008.21 1007.76 1007.48 1007.48 1007.45 1007.34 1007.27 1007.27
1013.11 1013.28 1013.49 1013.80 1014.25 1014.66 1015.03 1015.38 1015.59 1015.95 1016.24 1016.39 1016.53 1016.62 1016.92 1017.13 1017.29 1016.76 1015.54 1015.78 1016.18 1016.20 1015.82 1014.67 1012.60 1011.87 1011.57 1011.20 1011.70 1012.37 1012.68 1012.98 1012.80 1011.81 1011.56 1010.77 1011.05 1010.81 1009.67 1008.91 1008.66 1008.64 1008.49 1008.40 1008.37 1008.56 1008.45 1008.27 1007.96 1007.56 1007.50 1007.48 1007.26 1007.19
1012.61 1012.79 1013.07 1013.43 1013.93 1014.36 1014.70 1015.00 1015.25 1015.59 1015.90 1016.08 1016.24 1016.53 1016.75 1016.90 1016.33 1015.12 1015.05 1015.43 1015.79 1016.12 1015.08 1014.14 1012.92 1011.71 1011.40 1011.22 1011.45 1012.07 1011.85 1012.07 1011.75 1010.85 1010.40 1010.28 1009.98 1009.53 1008.81 1009.01 1008.85 1008.66 1008.59 1008.58 1008.60 1008.64 1008.52 1008.14 1007.87 1007.63 1007.44 1007.34 1007.34 1007.17
1012.16 1012.36 1012.74 1013.18 1013.65 1014.05 1014.42 1014.76 1015.00 1015.36 1015.63 1015.93 1016.25 1016.20 1015.61 1014.90 1014.32 1014.62 1015.42 1015.58 1015.73 1015.24 1014.80 1013.81 1013.02 1011.99 1011.77 1011.14 1010.99 1011.16 1010.61 1010.06 1010.19 1009.74 1010.05 1009.73 1009.12 1009.05 1009.12 1009.24 1009.29 1009.15 1009.16 1008.88 1008.60 1008.51 1008.67 1008.01 1008.04 1007.99 1007.59 1007.28 1007.18 1007.12
1011.79 1012.17 1012.61 1012.99 1013.38 1013.76 1014.15 1014.52 1014.83 1015.26 1015.56 1015.82 1015.67 1014.63 1014.06 1014.08 1014.17 1014.28 1014.46 1014.61 1014.51 1014.23 1013.33 1012.66 1012.12 1011.63 1011.74 1011.34 1010.79 1010.61 1009.82 1009.68 1009.48 1009.41 1009.39 1009.44 1009.16 1009.32 1009.67 1009.36 1009.12 1009.11 1009.14 1008.67 1008.61 1008.88 1008.87 1008.57 1008.36 1007.91 1007.61 1007.31 1007.07 1007.00
1011.59 1011.92 1012.34 1012.70 1013.17 1013.57 1013.93 1014.30 1014.64 1015.08 1014.98 1014.78 1014.54 1014.22 1014.14 1014.04 1013.75 1013.73 1013.56 1013.40 1013.13 1012.19 1011.72 1011.43 1011.25 1011.57 1011.34 1011.39 1010.88 1010.36 1009.70 1009.82 1009.43 1009.72 1009.55 1009.29 1009.72 1009.91 1009.68 1009.40 1009.31 1009.23 1009.09 1008.89 1008.85 1008.90 1008.83 1008.63 1008.33 1007.88 1007.49 1007.29 1007.09 1006.98
1011.36 1011.72 1012.14 1012.61 1013.03 1013.40 1013.76 1014.10 1014.39 1014.72 1014.61 1014.35 1013.99 1013.74 1013.32 1013.49 1013.11 1012.62 1012.15 1011.66 1011.35 1010.93 1010.77 1010.91 1010.86 1010.81 1011.40 1011.16 1010.75 1010.31 1009.86 1010.04 1009.99 1009.85 1009.84 1010.21 1010.33 1010.26 1010.12 1009.89 1009.66 1009.48 1009.42 1009.30 1009.20 1009.16 1009.06 1008.80 1008.50 1008.16 1007.75 1007.48 1007.23 1006.94
1011.37 1011.73 1012.21 1012.59 1012.92 1013.29 1013.63 1013.96 1014.40 1014.96 1015.22 1014.45 1014.21 1013.50 1012.87 1012.26 1011.86 1010.88 1010.42 1010.02 1010.17 1010.22 1010.34 1010.26 1010.23 1010.14 1010.36 1010.44 1010.76 1010.81 1010.66 1010.33 1009.86 1009.87 1010.28 1010.59 1010.73 1010.56 1010.48 1010.37 1010.11 1009.98 1009.84 1009.64 1009.45 1009.28 1009.16 1009.00 1008.67 1008.35 1008.11 1007.81 1007.42 1007.01
1011.45 1011.85 1012.24 1012.59 1012.90 1013.22 1013.61 1013.85 1014.32 1014.69 1014.33 1013.96 1013.20 1012.21 1011.53 1010.64 1010.38 1010.15 1010.09 1010.14 1010.18 1010.02 1010.11 1010.14 1009.84 1009.77 1010.03 1010.20 1010.45 1010.39 1010.42 1010.14 1010.21 1010.50 1010.91 1011.15 1011.22 1010.95 1010.81 1010.79 1010.67 1010.50 1010.31 1010.09 1009.97 1009.79 1009.70 1009.44 1009.06 1008.69 1008.48 1008.18 1007.87 1007.54
1011.70 1012.11 1012.37 1012.65 1012.98 1013.38 1013.67 1013.88 1014.11 1014.03 1013.53 1013.11 1012.54 1011.57 1010.76 1010.52 1009.92 1009.97 1009.82 1009.79 1009.87 1009.91 1009.85 1009.52 1009.18 1009.26 1009.59 1009.72 1010.02 1010.15 1010.03 1010.48 1011.14 1011.46 1011.55 1011.63 1011.52 1011.50 1011.44 1011.29 1011.13 1010.98 1010.83 1010.66 1010.51 1010.33 1010.11 1009.79 1009.57 1009.46 1009.16 1008.74 1008.36 1008.07
1011.92 1012.21 1012.47 1012.93 1013.20 1013.33 1013.56 1013.69 1013.64 1013.53 1013.38 1012.83 1011.84 1011.14 1010.78 1010.48 1010.16 1009.88 1009.66 1009.45 1009.79 1009.73 1008.81 1008.66 1009.33 1009.62 1009.59 1009.67 1010.12 1010.65 1010.83 1011.34 1011.65 1011.71 1011.92 1012.15 1012.01 1011.91 1011.77 1011.61 1011.47 1011.32 1011.19 1011.01 1010.83 1010.90 1010.68 1010.41 1010.12 1009.71 1009.32 1009.14 1008.81 1008.79
1012.21 1012.59 1012.77 1012.99 1013.30 1013.51 1013.67 1013.77 1013.85 1013.84 1013.41 1012.32 1011.60 1010.97 1010.68 1010.32 1009.92 1009.58 1009.43 1009.38 1009.36 1008.96 1008.83 1009.14 1009.54 1009.71 1009.78 1010.19 1010.90 1011.47 1011.65 1011.90 1012.18 1012.34 1012.48 1012.52 1012.41 1012.32 1012.12 1011.95 1011.88 1011.79 1011.66 1011.67 1011.52 1011.35 1011.10 1010.77 1010.30 1010.22 1010.01 1009.67 1009.23 1009.14
1012.48 1012.68 1013.00 1013.28 1013.39 1013.40 1013.65 1013.94 1014.11 1013.62 1012.23 1011.67 1011.16 1010.80 1010.48 1010.12 1009.76 1009.55 1009.35 1009.33 1009.25 1008.97 1009.32 1009.47 1009.89 1010.61 1011.06 1011.29 1011.30 1011.34 1011.59 1011.87 1012.18 1012.54 1012.75 1012.90 1012.77 1012.58 1012.48 1012.39 1012.34 1012.27 1012.17 1012.11 1011.89 1011.60 1011.34 1011.00 1010.80 1010.57 1010.17 1010.00 1010.06 1010.01
1013.01 1013.24 1013.31 1013.33 1013.20 1013.11 1013.32 1013.29 1013.33 1012.64 1011.72 1011.41 1010.95 1010.67 1010.60 1010.46 1010.07 1009.43 1009.09 1009.13 1009.20 1009.47 1010.06 1010.86 1011.54 1011.97 1011.92 1011.90 1011.80 1011.90 1012.11 1012.32 1012.28 1012.28 1012.64 1012.88 1012.91 1012.84 1012.87 1012.78 1012.74 1012.73 1012.59 1012.42 1012.11 1011.94 1011.46 1011.00 1010.75 1010.76 1010.78 1010.84 1010.80 1011.05
1013.23 1013.29 1013.16 1013.01 1013.08 1012.79 1012.40 1012.18 1011.98 1011.73 1011.32 1011.62 1011.32 1010.72 1010.97 1010.36 1010.20 1010.06 1009.92 1009.78 1009.95 1011.40 1012.19 1012.65 1012.60 1012.58 1012.68 1012.57 1012.48 1012.36 1012.34 1012.29 1012.16 1012.15 1012.60 1012.92 1013.17 1013.20 1013.20 1013.11 1013.01 1012.88 1012.63 1012.49 1012.32 1012.11 1011.97 1011.95 1011.88 1011.57 1011.73 1011.88 1011.88 1011.85
1012.99 1013.07 1012.92 1012.61 1012.32 1012.00 1011.76 1011.55 1011.40 1011.16 1011.02 1011.73 1011.61 1011.49 1011.49 1011.43 1011.25 1011.44 1011.65 1011.70 1012.70 1013.52 1013.64 1013.57 1013.42 1013.16 1013.07 1013.08 1013.04 1012.93 1012.89 1012.83 1012.89 1013.08 1013.20 1013.29 1013.31 1013.16 1013.18 1013.31 1013.21 1013.15 1013.14 1013.26 1013.11 1012.94 1012.77 1012.76 1012.59 1012.50 1012.36 1012.44 1012.47 1012.51
1012.72 1012.63 1012.51 1012.36 1012.03 1011.69 1011.98 1011.50 1011.09 1011.19 1011.16 1011.89 1011.96 1012.09 1012.57 1012.69 1012.84 1012.40 1012.93 1013.70 1014.13 1014.36 1014.31 1014.12 1013.91 1013.79 1013.69 1013.65 1013.51 1013.47 1013.37 1013.36 1013.37 1013.34 1013.42 1013.41 1013.56 1013.67 1013.71 1013.71 1013.73 1013.65 1013.55 1013.72 1013.73 1013.53 1013.38 1013.40 1013.21 1013.00 1013.06 1013.10 1013.10 1012.99
1012.93 1012.91 1012.66 1012.60 1012.51 1012.33 1011.77 1011.70 1011.80 1012.01 1012.33 1012.58 1012.91 1013.40 1014.06 1014.35 1013.96 1013.97 1014.41 1014.77 1015.06 1014.82 1014.62 1014.51 1014.26 1014.07 1013.90 1014.00 1014.11 1014.30 1014.30 1014.18 1014.05 1013.94 1013.95 1013.81 1013.70 1014.05 1013.92 1014.00 1014.05 1014.22 1014.22 1014.10 1013.93 1013.87 1013.84 1013.78 1013.68 1013.42 1013.36 1013.23 1013.20 1013.10
1013.77 1014.18 1013.81 1013.52 1013.11 1012.65 1012.55 1012.73 1012.86 1012.91 1013.63 1013.96 1014.16 1014.77 1015.31 1015.29 1015.09 1015.10 1015.33 1015.34 1015.15 1015.23 1015.16 1015.03 1014.94 1014.75 1014.78 1014.86 1014.77 1014.88 1014.91 1014.66 1014.29 1014.16 1014.43 1014.38 1014.29 1014.26 1014.31 1014.41 1014.39 1014.49 1014.35 1014.07 1014.21 1014.24 1014.30 1014.25 1014.20 1014.13 1014.02 1013.85 1013.72 1013.65
1014.59 1015.20 1014.98 1014.58 1014.25 1013.65 1013.76 1013.84 1014.08 1014.30 1014.37 1014.73 1015.23 1015.67 1015.88 1015.81 1015.96 1016.09 1015.84 1015.76 1015.52 1015.65 1015.56 1015.36 1015.20 1015.12 1015.21 1015.55 1015.31 1015.17 1015.26 1015.07 1014.78 1014.66 1015.19 1015.08 1014.86 1014.55 1014.35 1014.30 1014.34 1014.70 1014.86 1014.76 1014.63 1014.54 1014.58 1014.62 1014.64 1014.58 1014.49 1014.52 1014.58 1014.11
1015.75 1015.73 1015.60 1015.64 1015.17 1014.71 1014.67 1014.86 1014.90 1014.79 1014.97 1015.27 1015.44 1015.58 1015.80 1016.17 1016.36 1016.23 1015.95 1015.88 1015.75 1015.97 1015.97 1015.87 1015.67 1015.61 1015.73 1015.82 1015.82 1015.84 1015.63 1015.43 1015.45 1015.58 1015.55 1015.44 1015.36 1015.29 1014.94 1014.91 1015.13 1015.48 1015.41 1015.31 1015.20 1015.13 1015.06 1015.03 1014.98 1014.88 1014.80 1014.79 1014.74 1014.58
1016.51 1016.30 1015.87 1015.66 1015.13 1015.05 1014.98 1015.14 1015.14 1015.26 1015.42 1015.69 1015.60 1015.66 1016.02 1016.20 1016.48 1016.29 1016.16 1016.23 1016.24 1016.35 1016.38 1016.46 1016.51 1016.44 1016.39 1016.49 1016.46 1016.18 1015.91 1015.95 1015.94 1015.86 1015.67 1015.71 1015.87 1015.94 1015.93 1015.82 1015.96 1016.06 1015.90 1015.86 1015.70 1015.61 1015.52 1015.38 1015.23 1015.11 1014.99 1014.80 1014.67 1014.58
1016.45 1016.30 1016.06 1015.52 1015.18 1015.12 1015.28 1015.27 1015.27 1015.49 1015.66 1015.53 1015.38 1015.75 1016.17 1016.40 1016.63 1016.45 1016.41 1016.38 1016.52 1016.52 1016.46 1016.51 1016.73 1016.74 1016.72 1016.75 1016.74 1016.62 1016.40 1016.06 1015.79 1015.79 1015.78 1015.82 1015.86 1016.16 1016.35 1016.16 1015.97 1015.88 1015.79 1015.70 1015.98 1015.85 1015.80 1015.59 1015.46 1015.37 1015.22 1015.00 1014.85 1014.69
1016.28 1016.20 1015.57 1015.29 1015.06 1015.19 1015.47 1015.50 1015.42 1015.66 1015.77 1015.63 1015.50 1015.89 1016.17 1016.42 1016.69 1016.75 1016.58 1016.58 1016.50 1016.46 1016.59 1016.64 1016.74 1016.71 1016.67 1016.63 1016.70 1016.81 1016.95 1016.88 1016.75 1016.56 1016.41 1016.52 1016.67 1016.83 1016.67 1016.44 1016.22 1016.02 1015.87 1015.69 1015.50 1015.52 1015.77 1015.49 1015.40 1015.11 1015.01 1014.75 1014.58 1014.45
1015.91 1015.44 1015.25 1015.23 1015.48 1015.78 1015.74 1015.68 1015.62 1015.60 1015.58 1015.77 1015.65 1015.77 1016.21 1016.51 1016.52 1016.72 1016.67 1016.71 1016.66 1016.61 1016.48 1016.46 1016.49 1016.68 1016.69 1016.72 1016.76 1016.79 1016.94 1017.28 1017.41 1017.41 1017.39 1017.27 1017.17 1017.01 1016.89 1016.71 1016.43 1016.12 1015.85 1015.62 1015.48 1015.43 1015.42 1015.30 1015.21 1015.08 1014.88 1014.73 1014.57 1014.41
1015.24 1015.25 1015.20 1015.34 1015.71 1015.86 1015.62 1015.52 1015.65 1015.74 1015.80 1015.84 1015.84 1016.05 1016.38 1016.33 1016.23 1016.35 1016.54 1016.61 1016.53 1016.46 1016.81 1016.65 1016.48 1016.60 1016.82 1016.91 1017.06 1017.19 1017.51 1017.39 1017.50 1017.54 1017.54 1017.38 1017.21 1017.12 1016.99 1016.81 1016.55 1016.29 1015.99 1015.77 1015.66 1015.52 1015.45 1015.36 1015.19 1015.07 1014.87 1014.71 1014.59 1014.42
1015.20 1015.17 1015.20 1015.34 1015.51 1015.40 1015.41 1015.46 1015.44 1015.51 1015.62 1015.60 1015.63 1015.71 1015.85 1015.99 1016.05 1016.20 1016.59 1016.63 1016.47 1016.38 1016.50 1016.67 1016.79 1016.91 1017.10 1017.16 1017.23 1017.36 1017.55 1017.51 1017.63 1017.63 1017.57 1017.46 1017.29 1017.17 1017.05 1016.82 1016.70 1016.47 1016.18 1015.96 1015.75 1015.61 1015.50 1015.39 1015.16 1014.99 1014.83 1014.66 1014.47 1014.33
Wind_Speed
17 17 18 15 15 14 12 12 12 11 10 10 8 8 7 4 5 2 4 4 2 2 6 4 2 6 3 3 5 4 4 3 2 4 3 3 4 4 4 2 4 6 4 4 2 5 5 5 4 5 4 3 5 6
18 17 15 16 15 14 14 13 12 11 9 8 7 8 8 4 6 2 3 2 5 3 4 4 10 11 8 11 3 1 6 4 3 2 1 1 3 2 2 4 2 5 5 2 6 2 5 5 12 11 5 11 12 11
14 16 15 15 15 13 12 12 11 11 10 9 9 9 7 5 5 3 3 4 3 3 7 9 14 12 13 17 13 5 3 4 4 2 4 2 5 2 3 4 3 4 4 4 2 4 11 12 12 13 10 11 10 8
15 14 14 15 15 14 12 12 11 11 10 9 8 8 7 7 6 4 3 2 3 3 4 6 3 8 6 11 15 16 15 1 1 1 3 4 5 3 3 3 5 3 5 4 9 12 13 10 6 8 8 6 7 8
14 13 14 14 14 14 13 13 13 11 9 7 8 8 7 8 3 4 3 5 6 4 3 6 13 19 18 12 15 15 13 13 7 4 4 5 2 3 4 3 10 8 10 9 13 12 9 13 11 8 9 10 7 8
14 14 13 12 12 12 12 12 12 9 8 8 7 8 8 5 1 2 3 7 8 4 3 4 3 6 3 5 10 13 11 7 5 4 4 4 4 5 6 6 8 9 11 13 12 4 11 14 13 10 9 8 7 7
13 13 13 13 12 12 12 11 10 6 6 6 7 7 6 4 3 5 2 2 4 6 3 4 4 1 2 4 3 4 9 4 5 3 5 5 4 5 6 14 14 16 13 10 10 7 11 9 6 7 9 9 6 7
12 11 11 12 11 11 10 10 7 7 8 6 5 5 4 2 5 6 6 6 5 3 2 3 5 3 0 3 4 3 6 3 5 4 2 4 4 3 7 11 10 9 8 9 11 9 12 13 13 11 7 6 7 7
10 10 10 12 11 10 10 10 8 8 6 5 3 3 1 4 4 4 4 9 2 2 3 3 3 2 2 1 2 3 4 4 3 6 4 5 5 7 8 6 6 4 4 7 6 5 6 5 8 7 6 6 6 8
10 10 11 12 11 11 10 10 9 5 3 7 2 3 4 5 7 14 3 2 2 2 3 3 1 3 2 2 2 2 4 3 5 4 5 5 5 4 5 6 8 8 6 4 4 10 10 9 9 7 8 6 6 8
10 11 10 12 11 11 10 9 7 6 6 3 4 4 0 3 3 3 2 4 4 3 5 4 8 7 3 3 1 2 2 3 4 4 5 4 3 1 4 5 1 2 3 4 1 4 5 5 8 9 8 6 5 4
9 11 10 12 11 10 10 10 10 5 3 3 3 0 2 3 3 5 4 4 4 5 5 4 4 6 2 2 3 2 1 1 1 3 3 3 3 2 5 4 6 6 7 8 6 6 8 10 10 10 9 6 6 4
10 10 11 11 10 9 10 10 12 3 5 3 2 2 3 2 4 5 6 5 4 4 5 5 5 4 2 3 0 2 1 2 3 2 1 2 2 3 6 6 5 6 8 8 9 10 11 12 12 10 9 7 7 8
10 11 11 10 9 10 10 9 10 6 2 0 2 3 4 5 5 7 8 4 3 2 4 4 3 2 3 3 2 3 1 3 2 3 2 2 5 4 4 5 6 9 9 9 11 12 13 13 12 9 7 7 7 9
11 11 10 8 10 10 9 10 10 2 2 4 5 5 7 4 3 4 3 2 2 1 2 3 2 3 2 3 1 5 5 3 3 3 2 2 6 6 7 8 8 8 8 9 10 10 10 10 9 9 8 8 8 9
12 10 2 9 10 10 10 7 4 3 3 3 5 4 2 2 2 1 3 4 3 3 2 3 3 3 2 3 7 0 0 3 3 2 1 2 4 6 5 5 6 6 6 7 8 9 9 10 10 8 7 9 9 9
6 2 9 13 11 10 7 2 1 3 3 4 3 3 3 4 3 2 2 2 3 4 2 3 4 3 0 2 3 4 3 3 1 2 3 3 4 5 5 5 7 6 6 7 7 8 9 9 8 10 12 11 10 11
3 8 13 12 8 3 1 0 2 2 4 5 3 3 1 2 3 2 1 1 3 2 2 3 2 2 4 3 3 2 3 3 4 5 5 5 5 5 5 7 7 7 7 8 6 5 5 7 9 8 8 8 8 8
6 7 12 9 1 2 1 2 2 3 4 2 3 2 2 0 2 2 1 1 1 2 5 2 5 4 3 2 3 3 3 3 4 4 4 5 5 7 8 8 8 9 8 8 8 7 5 5 5 5 6 7 6 6
10 8 8 4 2 2 6 4 5 3 2 3 2 4 3 2 3 5 7 5 3 3 7 6 5 3 3 4 4 4 3 3 4 5 6 4 4 7 8 7 6 5 5 5 5 5 6 5 4 5 5 6 8 9
3 3 5 3 3 4 2 2 4 1 1 5 4 3 2 3 10 9 8 7 9 6 5 4 4 4 3 3 3 3 4 2 3 4 7 5 3 4 4 4 5 6 7 8 8 8 7 7 6 6 7 7 7 7
2 2 2 2 2 2 1 2 3 2 2 4 1 1 5 6 9 9 5 8 5 4 3 3 4 4 6 5 4 4 4 5 6 5 4 3 3 4 5 5 5 6 7 7 6 7 7 6 6 6 7 7 7 9
2 2 2 2 2 4 2 2 3 6 4 4 3 4 5 4 6 4 5 4 3 3 2 2 3 6 6 6 6 7 7 5 4 4 3 4 4 4 4 4 5 6 6 6 5 6 6 5 7 6 6 6 6 7
3 4 5 5 4 3 3 5 3 4 5 4 5 5 6 6 6 5 4 3 3 4 5 5 2 4 5 7 6 5 5 3 2 2 3 0 3 4 4 4 5 4 4 3 4 5 5 5 5 6 6 7 7 8
3 7 5 7 4 4 6 5 5 5 5 5 5 5 5 4 3 4 4 4 5 6 5 4 5 5 4 3 2 4 4 4 3 3 4 2 2 2 2 3 5 6 4 5 5 5 5 5 6 7 8 7 8 9
6 5 5 6 4 5 5 4 5 5 3 4 4 3 2 1 3 3 3 5 3 3 3 3 3 3 6 5 4 6 5 4 2 3 4 4 3 2 3 4 4 6 6 5 6 7 6 6 7 8 8 9 7 8
5 5 3 2 2 1 4 3 2 3 4 3 2 2 2 4 3 1 2 3 3 3 3 4 5 6 5 5 4 5 5 6 6 4 3 5 5 5 5 5 6 4 4 6 6 7 7 6 7 8 7 6 6 6
2 4 4 5 3 3 3 3 3 3 2 1 1 3 2 1 1 2 2 3 3 4 4 4 4 4 5 5 5 5 3 2 0 2 4 6 6 6 6 4 4 3 3 4 4 5 5 5 5 6 6 6 5 5
3 2 2 4 3 4 4 3 3 2 1 1 2 3 3 2 2 2 2 2 3 2 2 3 3 2 3 4 4 5 6 5 2 3 3 4 4 6 6 5 4 2 2 1 3 4 4 3 4 5 5 5 4 3
3 2 2 3 4 6 5 4 4 3 1 2 3 4 4 3 3 1 2 2 1 1 1 1 0 2 3 3 4 5 5 5 5 5 5 5 5 4 5 5 5 5 4 4 2 2 2 1 1 3 4 4 4 4
1 0 5 5 5 4 5 5 5 4 4 4 6 8 7 3 2 2 2 1 1 1 1 2 2 2 2 1 1 3 4 3 4 4 4 3 3 3 4 5 5 5 5 2 1 1 3 4 5 6 6 7 7 6
3 5 6 7 5 2 2 2 2 2 3 3 3 2 2 2 2 1 2 1 1 1 2 2 4 4 3 2 2 2 1 2 2 3 4 4 4 4 3 3 4 5 5 4 3 4 5 5 5 6 6 7 7 7
2 2 3 3 3 4 1 1 2 2 1 0 2 2 1 1 3 1 2 2 1 1 1 2 2 2 2 1 1 1 1 1 3 5 6 6 7 6 4 2 2 4 5 5 5 5 6 7 7 7 7 8 8 7
Wind_Direction
258 256 257 249 241 241 242 249 258 272 272 276 266 277 279 278 291 277 268 196 228 247 289 251 275 234 224 243 252 26 269 171 246 229 239 197 235 193 231 236 212 231 213 215 186 230 259 161 152 239 340 290 272 288
259 257 257 255 240 233 230 238 248 267 272 267 272 277 276 248 264 318 265 252 200 243 305 307 275 266 266 256 276 213 298 306 325 280 209 261 225 199 239 234 168 230 230 263 227 275 322 225 259 269 288 288 289 292
265 252 251 253 246 239 234 226 235 253 265 268 268 254 263 242 231 238 286 266 201 240 256 250 259 258 227 234 229 248 214 242 222 338 324 323 267 205 236 225 257 210 185 237 261 241 288 291 273 272 266 260 280 280
267 259 252 242 232 233 243 241 234 242 264 262 265 261 265 248 224 261 243 280 252 286 265 270 240 240 232 221 213 223 243 150 28 277 263 253 249 205 246 315 267 334 165 251 265 281 296 281 293 283 275 269 282 299
263 254 247 242 232 220 227 233 233 242 251 262 261 261 257 248 213 261 248 255 245 257 308 301 295 266 242 218 215 218 225 227 238 238 233 236 256 239 232 254 248 237 260 264 278 289 293 275 300 305 298 306 316 315
257 247 239 232 231 217 218 229 238 234 235 240 261 268 266 218 169 248 245 213 214 195 282 284 301 260 242 206 214 216 206 195 206 208 229 236 244 237 255 264 260 257 262 268 265 269 281 275 284 283 288 310 311 311
262 245 232 220 215 207 217 226 221 204 220 230 253 270 242 175 187 234 298 17 186 171 239 259 267 205 276 136 128 153 181 186 207 222 224 237 213 202 250 258 274 276 268 257 253 264 279 246 259 298 299 292 301 299
262 247 224 209 198 206 215 219 202 198 213 230 262 242 199 247 274 268 245 185 177 187 235 252 265 280 119 184 142 149 144 175 196 232 215 223 152 217 257 259 282 289 286 265 250 249 274 306 307 318 316 310 300 301
265 228 213 187 188 200 209 204 195 212 212 248 161 132 206 194 210 228 176 143 153 243 230 211 267 306 336 95 107 163 173 171 147 218 211 188 187 223 242 277 294 295 304 311 333 331 329 329 335 341 328 320 303 301
240 211 199 181 192 199 196 205 202 186 182 131 158 176 204 210 160 128 166 137 176 215 225 251 199 263 294 0 183 206 200 194 191 188 139 213 231 270 263 264 288 294 308 336 351 5 343 1 358 333 331 327 291 292
206 197 182 188 191 188 194 187 179 152 134 168 210 225 118 189 162 176 184 218 154 221 206 231 218 234 195 243 263 217 211 155 222 141 213 192 233 69 7 311 49 50 333 296 223 3 314 328 332 334 327 307 311 323
184 184 187 185 182 186 185 182 175 168 205 242 280 60 146 178 191 193 196 189 212 232 185 205 187 204 192 213 249 149 226 202 241 145 220 208 53 328 329 9 51 42 28 33 23 355 359 355 352 349 345 320 327 312
173 170 170 169 177 185 183 179 178 125 5 299 228 228 186 112 186 205 182 196 208 198 178 178 170 165 163 229 101 299 132 270 161 113 226 32 334 2 16 17 31 31 17 10 1 359 356 352 353 346 345 350 322 311
160 158 158 172 182 175 171 173 163 118 218 199 68 209 221 180 218 210 208 193 192 202 170 180 136 193 163 157 122 27 356 322 302 161 85 48 40 344 19 12 9 3 3 3 359 351 357 355 347 347 355 345 335 332
152 153 161 161 159 159 156 163 152 114 253 229 219 201 210 243 246 239 242 248 184 180 154 154 178 189 112 85 149 210 188 165 35 76 71 41 11 3 12 11 23 27 15 4 357 0 6 9 5 8 18 9 5 355
129 116 154 152 142 143 159 164 163 207 214 225 241 255 211 224 262 196 215 242 196 187 175 232 131 115 202 191 189 199 135 65 51 39 37 351 6 18 36 26 23 22 22 27 31 27 21 15 9 356 3 17 16 9
107 78 137 125 138 145 174 113 342 14 345 302 258 260 285 282 270 278 216 201 134 196 172 119 93 256 178 56 64 13 48 86 94 119 80 49 55 45 38 39 36 35 35 28 27 29 15 6 12 23 19 11 23 18
75 133 130 139 138 133 89 63 53 41 273 247 262 359 269 256 276 226 211 206 201 135 55 53 148 49 37 50 62 85 83 81 75 83 69 62 66 59 50 46 40 34 31 22 2 346 353 8 30 31 25 12 14 20
135 133 143 146 74 81 88 63 47 272 261 312 284 267 258 293 316 305 272 89 92 62 123 105 58 38 55 60 95 80 80 84 99 92 81 71 68 59 55 56 49 45 41 26 17 14 4 7 11 7 18 33 35 22
110 131 173 213 328 147 189 196 198 249 302 17 17 27 49 3 306 40 49 43 114 107 51 44 42 28 24 32 28 50 66 115 144 119 93 77 63 62 53 53 46 24 20 5 15 18 2 13 25 17 30 42 34 30
148 197 241 199 222 230 259 183 202 191 273 68 8 16 105 45 47 42 39 24 45 33 61 38 32 31 34 40 38 41 74 80 81 70 108 116 90 61 66 58 42 37 24 19 14 15 19 15 2 18 45 42 44 59
259 284 259 229 257 274 293 18 337 344 53 110 164 339 37 38 45 38 23 45 46 29 14 2 16 47 72 60 53 39 77 96 91 92 87 113 114 93 64 42 35 36 34 24 18 21 25 24 37 51 58 63 61 54
305 350 350 348 326 42 22 299 39 10 40 48 24 41 32 25 14 332 60 35 40 7 329 350 22 60 80 76 81 64 47 63 82 88 99 112 108 83 77 49 33 33 34 39 27 34 38 33 46 55 62 58 52 46
330 13 11 17 20 16 343 29 33 45 44 37 35 46 29 15 351 39 46 37 350 354 23 26 33 82 74 50 45 33 20 14 42 74 30 80 89 64 47 53 46 47 32 31 34 36 36 38 20 44 43 43 41 35
34 358 13 356 19 23 41 35 27 52 55 38 52 43 21 4 21 41 20 355 359 21 16 46 57 49 54 31 33 15 25 347 344 49 43 41 113 109 87 85 60 37 15 24 27 24 31 37 42 42 39 36 43 49
61 11 29 3 19 34 20 52 45 46 60 69 67 98 160 54 54 37 346 338 346 357 16 42 56 62 55 27 11 12 2 350 18 78 35 10 19 16 42 49 64 60 27 20 10 23 36 44 48 50 61 72 52 61
53 17 13 36 337 69 91 73 69 62 70 60 58 94 97 62 72 239 3 15 16 38 53 55 49 59 52 41 38 27 33 45 58 64 63 54 51 37 35 58 63 46 29 41 45 39 46 63 70 68 70 65 50 32
56 6 42 352 46 21 87 66 46 56 90 118 129 65 79 89 109 6 14 28 103 104 83 70 57 55 54 44 25 7 11 345 160 103 110 85 65 50 36 55 59 29 41 35 34 48 47 58 56 45 30 20 17 13
49 6 303 41 59 52 40 35 60 68 105 188 92 88 75 59 349 341 38 121 132 139 119 107 83 66 66 59 44 30 21 15 62 135 72 63 51 41 14 4 350 328 310 329 95 34 38 31 28 12 0 357 2 10
41 340 60 43 54 46 34 13 71 74 75 39 93 116 96 74 31 9 120 158 269 342 30 22 87 341 20 19 37 49 45 34 35 39 50 48 34 7 359 353 349 344 324 292 275 103 154 266 3 332 352 357 358 353
317 205 78 63 70 75 91 96 84 74 66 72 92 100 100 80 90 62 43 49 72 59 52 42 27 27 337 310 22 25 74 63 47 46 29 14 357 3 9 5 355 354 351 323 199 15 4 352 359 358 4 359 353 326
66 81 98 97 100 133 191 63 89 131 175 176 149 148 147 170 122 124 134 168 165 110 82 360 20 33 24 59 90 82 44 84 35 357 335 329 323 325 330 347 4 11 21 34 7 343 336 333 335 347 343 345 343 337
66 75 92 99 141 203 172 140 155 166 165 110 118 120 84 84 83 97 154 236 327 107 125 62 30 27 48 45 61 99 237 2 347 311 315 310 293 287 295 289 341 353 358 356 349 338 327 323 318 315 314 323 322 322